Location: Baili�vre
(50.0696°N, 4.2409°E)
Time: 03:00:29
(UTC+00:00)

Cosmos 1666 - Pass Details

Date: 08 August 2020
Orbit: 498 x 520 km, 82.5° (Epoch: 25 September)

Event Time Altitude Azimuth Distance (km) Brightness Sun altitude
Exits shadow 22:36:44 63° 56° (ENE) 563 2.8 -22.3°
Drops below altitude 10° 22:40:07 10° 14° (NNE) 1,721 6.1 -22.4°
Sets 22:42:16 0° 12° (NNE) 2,614 7.3 -22.5°
